Вернуться в каталог

CZ-2C DEB

АктивенSSO
NORAD 40266·DEBRIS·🇨🇳 China

Запущен Sep 28, 2014 с Jiuquan Satellite Launch Center

Loading…

Ближайшие Пролёты (ближайшие 24 часа)

TLE

СвежийSource: Space-Track

Эпоха: Sep 13, 2026, 17:23 UTC

1 40266U 14059F   26256.72494901  .00001565  00000-0  50064-3 0  9999
2 40266  98.3463 162.6510 0159698 317.1337  41.7488 14.33994514621360

Отслеживайте CZ-2C DEB в реальном времени с AllMySat

Download on the App Store